Wetterdaten: Samstag, 01.06.2019
Datum Zeit Temp. Auen Feucht Auen Luftdruck Regen Richtung Richtung Windben
01.06.2019 00:00 13,2 C 88 % 1026,1 hPa 0,0 mm W 266 0,0 km/h (0 Bft)
01.06.2019 00:05 13,2 C 88 % 1026,0 hPa 0,0 mm W 266 0,0 km/h (0 Bft)
01.06.2019 00:10 13,1 C 88 % 1026,0 hPa 0,0 mm W 266 0,0 km/h (0 Bft)
01.06.2019 00:15 13,1 C 89 % 1026,1 hPa 0,0 mm W 266 0,0 km/h (0 Bft)
01.06.2019 00:20 13,1 C 89 % 1026,1 hPa 0,0 mm W 266 0,0 km/h (0 Bft)
01.06.2019 00:25 13,0 C 89 % 1026,0 hPa 0,0 mm W 266 0,0 km/h (0 Bft)
01.06.2019 00:30 12,9 C 89 % 1026,0 hPa 0,0 mm W 266 0,0 km/h (0 Bft)
01.06.2019 00:35 12,9 C 89 % 1025,9 hPa 0,0 mm W 266 3,2 km/h (1 Bft)
01.06.2019 00:40 12,9 C 89 % 1025,8 hPa 0,0 mm W 266 3,2 km/h (1 Bft)
01.06.2019 00:45 12,8 C 89 % 1025,9 hPa 0,0 mm W 266 1,6 km/h (1 Bft)
01.06.2019 00:50 12,8 C 89 % 1025,7 hPa 0,0 mm W 266 1,6 km/h (1 Bft)
01.06.2019 00:55 12,8 C 89 % 1025,8 hPa 0,0 mm W 266 0,0 km/h (0 Bft)
01.06.2019 01:00 12,8 C 89 % 1025,7 hPa 0,0 mm W 266 0,0 km/h (0 Bft)
01.06.2019 01:05 12,7 C 89 % 1025,7 hPa 0,0 mm W 266 0,0 km/h (0 Bft)
01.06.2019 01:10 12,7 C 89 % 1025,6 hPa 0,0 mm W 266 0,0 km/h (0 Bft)
01.06.2019 01:15 12,6 C 89 % 1025,5 hPa 0,0 mm W 266 0,0 km/h (0 Bft)
01.06.2019 01:20 12,6 C 89 % 1025,5 hPa 0,0 mm W 266 1,6 km/h (1 Bft)
01.06.2019 01:25 12,6 C 90 % 1025,4 hPa 0,0 mm W 266 1,6 km/h (1 Bft)
01.06.2019 01:30 12,5 C 90 % 1025,4 hPa 0,0 mm W 266 1,6 km/h (1 Bft)
01.06.2019 01:35 12,4 C 90 % 1025,4 hPa 0,0 mm W 266 3,2 km/h (1 Bft)
01.06.2019 01:40 12,4 C 90 % 1025,4 hPa 0,0 mm W 266 1,6 km/h (1 Bft)
01.06.2019 01:45 12,3 C 90 % 1025,4 hPa 0,0 mm W 266 0,0 km/h (0 Bft)
01.06.2019 01:50 12,3 C 90 % 1025,4 hPa 0,0 mm W 266 0,0 km/h (0 Bft)
01.06.2019 01:55 12,2 C 90 % 1025,4 hPa 0,0 mm W 266 0,0 km/h (0 Bft)
01.06.2019 02:00 12,2 C 90 % 1025,4 hPa 0,0 mm W 266 0,0 km/h (0 Bft)
01.06.2019 02:05 12,1 C 90 % 1025,4 hPa 0,0 mm W 266 0,0 km/h (0 Bft)
01.06.2019 02:10 11,9 C 90 % 1025,4 hPa 0,0 mm W 266 0,0 km/h (0 Bft)
01.06.2019 02:15 11,8 C 90 % 1025,4 hPa 0,0 mm W 266 0,0 km/h (0 Bft)
01.06.2019 02:20 11,7 C 90 % 1025,4 hPa 0,0 mm W 266 0,0 km/h (0 Bft)
01.06.2019 02:25 11,6 C 90 % 1025,4 hPa 0,0 mm W 266 0,0 km/h (0 Bft)
01.06.2019 02:30 11,4 C 90 % 1025,3 hPa 0,0 mm W 266 0,0 km/h (0 Bft)
01.06.2019 02:35 11,3 C 90 % 1025,3 hPa 0,0 mm W 266 0,0 km/h (0 Bft)
01.06.2019 02:40 11,2 C 90 % 1025,3 hPa 0,0 mm W 266 0,0 km/h (0 Bft)
01.06.2019 02:45 11,0 C 90 % 1025,3 hPa 0,0 mm W 266 0,0 km/h (0 Bft)
01.06.2019 02:50 10,9 C 90 % 1025,3 hPa 0,0 mm W 266 0,0 km/h (0 Bft)
01.06.2019 02:55 10,8 C 90 % 1025,3 hPa 0,0 mm W 266 0,0 km/h (0 Bft)
01.06.2019 03:00 10,7 C 90 % 1025,3 hPa 0,0 mm W 266 0,0 km/h (0 Bft)
01.06.2019 03:05 10,6 C 90 % 1025,2 hPa 0,0 mm W 266 0,0 km/h (0 Bft)
01.06.2019 03:10 10,5 C 90 % 1025,2 hPa 0,0 mm W 266 0,0 km/h (0 Bft)
01.06.2019 03:15 10,4 C 90 % 1025,1 hPa 0,0 mm W 266 1,6 km/h (1 Bft)
01.06.2019 03:20 10,4 C 90 % 1025,0 hPa 0,0 mm W 266 3,2 km/h (1 Bft)
01.06.2019 03:25 10,3 C 90 % 1025,1 hPa 0,0 mm W 266 4,8 km/h (1 Bft)
01.06.2019 03:30 10,4 C 91 % 1025,0 hPa 0,0 mm W 266 3,2 km/h (1 Bft)
01.06.2019 03:35 10,4 C 91 % 1024,9 hPa 0,0 mm W 266 4,8 km/h (1 Bft)
01.06.2019 03:40 10,5 C 91 % 1024,8 hPa 0,0 mm W 266 4,8 km/h (1 Bft)
01.06.2019 03:45 10,6 C 91 % 1024,8 hPa 0,0 mm W 266 4,8 km/h (1 Bft)
01.06.2019 03:50 10,6 C 91 % 1024,8 hPa 0,0 mm W 266 1,6 km/h (1 Bft)
01.06.2019 03:55 10,6 C 91 % 1024,7 hPa 0,0 mm W 266 0,0 km/h (0 Bft)
01.06.2019 04:00 10,5 C 91 % 1024,7 hPa 0,0 mm W 266 0,0 km/h (0 Bft)
01.06.2019 04:05 10,6 C 92 % 1024,7 hPa 0,0 mm W 266 4,8 km/h (1 Bft)
01.06.2019 04:10 10,6 C 91 % 1024,6 hPa 0,0 mm W 266 4,8 km/h (1 Bft)
01.06.2019 04:15 10,7 C 91 % 1024,7 hPa 0,0 mm W 266 1,6 km/h (1 Bft)
01.06.2019 04:20 10,7 C 91 % 1024,7 hPa 0,0 mm W 266 0,0 km/h (0 Bft)
01.06.2019 04:25 10,7 C 92 % 1024,6 hPa 0,0 mm W 266 1,6 km/h (1 Bft)
01.06.2019 04:30 10,7 C 92 % 1024,7 hPa 0,0 mm W 266 0,0 km/h (0 Bft)
01.06.2019 04:35 10,7 C 92 % 1024,7 hPa 0,0 mm W 266 0,0 km/h (0 Bft)
01.06.2019 04:40 10,7 C 92 % 1024,6 hPa 0,0 mm W 266 0,0 km/h (0 Bft)
01.06.2019 04:45 10,7 C 92 % 1024,7 hPa 0,0 mm W 266 0,0 km/h (0 Bft)
01.06.2019 04:50 10,7 C 92 % 1024,7 hPa 0,0 mm W 266 0,0 km/h (0 Bft)
01.06.2019 04:55 10,7 C 92 % 1024,7 hPa 0,0 mm W 266 1,6 km/h (1 Bft)
01.06.2019 05:00 10,7 C 92 % 1024,7 hPa 0,0 mm W 266 3,2 km/h (1 Bft)
01.06.2019 05:05 10,7 C 92 % 1024,7 hPa 0,0 mm W 266 1,6 km/h (1 Bft)
01.06.2019 05:10 10,7 C 92 % 1024,7 hPa 0,0 mm W 266 1,6 km/h (1 Bft)
01.06.2019 05:15 10,7 C 92 % 1024,7 hPa 0,0 mm W 266 1,6 km/h (1 Bft)
01.06.2019 05:20 10,7 C 92 % 1024,7 hPa 0,0 mm W 266 0,0 km/h (0 Bft)
01.06.2019 05:25 10,8 C 92 % 1024,7 hPa 0,0 mm W 266 1,6 km/h (1 Bft)
01.06.2019 05:30 10,8 C 92 % 1024,7 hPa 0,0 mm W 266 0,0 km/h (0 Bft)
01.06.2019 05:35 10,9 C 92 % 1024,7 hPa 0,0 mm W 266 0,0 km/h (0 Bft)
01.06.2019 05:40 10,9 C 92 % 1024,6 hPa 0,0 mm W 266 1,6 km/h (1 Bft)
01.06.2019 05:45 10,9 C 92 % 1024,6 hPa 0,0 mm W 266 1,6 km/h (1 Bft)
01.06.2019 05:50 10,9 C 92 % 1024,6 hPa 0,0 mm W 266 1,6 km/h (1 Bft)
01.06.2019 05:55 10,9 C 92 % 1024,6 hPa 0,0 mm W 266 0,0 km/h (0 Bft)
01.06.2019 06:00 11,0 C 93 % 1024,6 hPa 0,0 mm W 266 4,8 km/h (1 Bft)
01.06.2019 06:05 11,1 C 92 % 1024,7 hPa 0,0 mm W 266 3,2 km/h (1 Bft)
01.06.2019 06:10 11,1 C 92 % 1024,7 hPa 0,0 mm W 266 0,0 km/h (0 Bft)
01.06.2019 06:15 11,1 C 92 % 1024,7 hPa 0,0 mm W 266 0,0 km/h (0 Bft)
01.06.2019 06:20 11,1 C 93 % 1024,7 hPa 0,0 mm W 266 3,2 km/h (1 Bft)
01.06.2019 06:25 11,2 C 93 % 1024,7 hPa 0,0 mm W 266 3,2 km/h (1 Bft)
01.06.2019 06:30 11,3 C 92 % 1024,8 hPa 0,0 mm W 266 0,0 km/h (0 Bft)
01.06.2019 06:35 11,3 C 93 % 1024,8 hPa 0,0 mm W 266 0,0 km/h (0 Bft)
01.06.2019 06:40 11,4 C 93 % 1024,6 hPa 0,0 mm W 266 0,0 km/h (0 Bft)
01.06.2019 06:45 11,4 C 93 % 1024,6 hPa 0,0 mm W 266 1,6 km/h (1 Bft)
01.06.2019 06:50 11,4 C 93 % 1024,6 hPa 0,0 mm W 266 3,2 km/h (1 Bft)
01.06.2019 06:55 11,6 C 93 % 1024,7 hPa 0,0 mm W 266 3,2 km/h (1 Bft)
01.06.2019 07:00 11,6 C 93 % 1024,7 hPa 0,0 mm W 266 1,6 km/h (1 Bft)
01.06.2019 07:05 11,7 C 93 % 1024,7 hPa 0,0 mm W 266 0,0 km/h (0 Bft)
01.06.2019 07:10 11,9 C 93 % 1024,7 hPa 0,0 mm W 266 0,0 km/h (0 Bft)
01.06.2019 07:15 12,1 C 93 % 1024,8 hPa 0,0 mm W 266 0,0 km/h (0 Bft)
01.06.2019 07:20 12,2 C 93 % 1024,7 hPa 0,0 mm W 266 0,0 km/h (0 Bft)
01.06.2019 07:25 12,2 C 93 % 1024,7 hPa 0,0 mm W 266 1,6 km/h (1 Bft)
01.06.2019 07:30 12,2 C 93 % 1024,8 hPa 0,0 mm W 266 1,6 km/h (1 Bft)
01.06.2019 07:35 12,3 C 93 % 1024,7 hPa 0,0 mm W 266 0,0 km/h (0 Bft)
01.06.2019 07:40 12,5 C 93 % 1024,7 hPa 0,0 mm W 266 0,0 km/h (0 Bft)
01.06.2019 07:45 12,5 C 93 % 1024,6 hPa 0,0 mm W 266 0,0 km/h (0 Bft)
01.06.2019 07:50 12,7 C 93 % 1024,5 hPa 0,0 mm W 266 0,0 km/h (0 Bft)
01.06.2019 07:55 12,8 C 92 % 1024,6 hPa 0,0 mm W 266 0,0 km/h (0 Bft)
01.06.2019 08:00 13,2 C 92 % 1024,7 hPa 0,0 mm W 266 0,0 km/h (0 Bft)
01.06.2019 08:05 13,4 C 92 % 1024,7 hPa 0,0 mm W 266 0,0 km/h (0 Bft)
01.06.2019 08:10 13,4 C 92 % 1024,7 hPa 0,0 mm W 266 0,0 km/h (0 Bft)
01.06.2019 08:15 13,4 C 92 % 1024,7 hPa 0,0 mm W 266 0,0 km/h (0 Bft)
01.06.2019 08:20 13,6 C 92 % 1024,6 hPa 0,0 mm W 266 0,0 km/h (0 Bft)
01.06.2019 08:25 13,6 C 92 % 1024,6 hPa 0,0 mm W 266 0,0 km/h (0 Bft)
01.06.2019 08:30 13,7 C 91 % 1024,6 hPa 0,0 mm W 266 1,6 km/h (1 Bft)
01.06.2019 08:35 13,8 C 91 % 1024,6 hPa 0,0 mm W 266 1,6 km/h (1 Bft)
01.06.2019 08:40 14,0 C 90 % 1024,6 hPa 0,0 mm W 266 3,2 km/h (1 Bft)
01.06.2019 08:45 14,2 C 91 % 1024,6 hPa 0,0 mm W 266 3,2 km/h (1 Bft)
01.06.2019 08:50 14,4 C 90 % 1024,6 hPa 0,0 mm SO 128 4,8 km/h (1 Bft)
01.06.2019 08:55 14,7 C 90 % 1024,6 hPa 0,0 mm SO 128 3,2 km/h (1 Bft)
01.06.2019 09:00 14,7 C 89 % 1024,6 hPa 0,0 mm SO 128 1,6 km/h (1 Bft)
01.06.2019 09:05 14,9 C 89 % 1024,6 hPa 0,0 mm SO 128 0,0 km/h (0 Bft)
01.06.2019 09:10 15,4 C 88 % 1024,5 hPa 0,0 mm SO 128 0,0 km/h (0 Bft)
01.06.2019 09:15 16,3 C 88 % 1024,5 hPa 0,0 mm SO 128 0,0 km/h (0 Bft)
01.06.2019 09:20 16,2 C 87 % 1024,4 hPa 0,0 mm SO 128 1,6 km/h (1 Bft)
01.06.2019 09:25 16,2 C 86 % 1024,4 hPa 0,0 mm SO 128 1,6 km/h (1 Bft)
01.06.2019 09:30 16,3 C 85 % 1024,4 hPa 0,0 mm O-SO 120 4,8 km/h (1 Bft)
01.06.2019 09:35 16,4 C 84 % 1024,5 hPa 0,0 mm O-SO 120 3,2 km/h (1 Bft)
01.06.2019 09:40 16,8 C 84 % 1024,4 hPa 0,0 mm O-SO 120 4,8 km/h (1 Bft)
01.06.2019 09:45 16,9 C 82 % 1024,4 hPa 0,0 mm O-SO 120 3,2 km/h (1 Bft)
01.06.2019 09:50 17,1 C 82 % 1024,4 hPa 0,0 mm O-SO 120 3,2 km/h (1 Bft)
01.06.2019 09:55 17,2 C 78 % 1024,4 hPa 0,0 mm O-SO 120 3,2 km/h (1 Bft)
01.06.2019 10:00 17,7 C 78 % 1024,4 hPa 0,0 mm O-SO 120 4,8 km/h (1 Bft)
01.06.2019 10:05 18,1 C 75 % 1024,3 hPa 0,0 mm O-SO 120 3,2 km/h (1 Bft)
01.06.2019 10:10 18,3 C 75 % 1024,3 hPa 0,0 mm O-SO 120 4,8 km/h (1 Bft)
01.06.2019 10:15 18,4 C 74 % 1024,3 hPa 0,0 mm SO 136 4,8 km/h (1 Bft)
01.06.2019 10:20 18,7 C 76 % 1024,3 hPa 0,0 mm SO 134 4,8 km/h (1 Bft)
01.06.2019 10:25 20,4 C 68 % 1024,1 hPa 0,0 mm W 263 6,4 km/h (2 Bft)
01.06.2019 10:30 20,4 C 66 % 1024,1 hPa 0,0 mm W-SW 252 8,0 km/h (2 Bft)
01.06.2019 10:35 19,4 C 71 % 1024,0 hPa 0,0 mm W-SW 248 4,8 km/h (1 Bft)
01.06.2019 10:40 20,5 C 66 % 1024,0 hPa 0,0 mm W-SW 248 1,6 km/h (1 Bft)
01.06.2019 10:45 20,7 C 64 % 1023,9 hPa 0,0 mm W-SW 257 8,0 km/h (2 Bft)
01.06.2019 10:50 20,7 C 65 % 1023,9 hPa 0,0 mm W 261 9,7 km/h (2 Bft)
01.06.2019 10:55 21,6 C 63 % 1023,8 hPa 0,0 mm W 266 4,8 km/h (1 Bft)
01.06.2019 11:00 21,1 C 64 % 1023,8 hPa 0,0 mm SW 232 8,0 km/h (2 Bft)
01.06.2019 11:05 20,2 C 66 % 1023,8 hPa 0,0 mm O-SO 123 9,7 km/h (2 Bft)
01.06.2019 11:10 20,1 C 67 % 1023,7 hPa 0,0 mm S-SO 167 6,4 km/h (2 Bft)
01.06.2019 11:15 20,2 C 68 % 1023,7 hPa 0,0 mm O 82 8,0 km/h (2 Bft)
01.06.2019 11:20 20,1 C 69 % 1023,8 hPa 0,0 mm O-NO 69 8,0 km/h (2 Bft)
01.06.2019 11:25 20,3 C 68 % 1023,8 hPa 0,0 mm O 100 4,8 km/h (1 Bft)
01.06.2019 11:30 20,7 C 64 % 1023,7 hPa 0,0 mm O-NO 58 8,0 km/h (2 Bft)
01.06.2019 11:35 20,3 C 66 % 1023,7 hPa 0,0 mm SO 139 6,4 km/h (2 Bft)
01.06.2019 11:40 20,1 C 69 % 1023,7 hPa 0,0 mm NO 49 6,4 km/h (2 Bft)
01.06.2019 11:45 19,9 C 68 % 1023,7 hPa 0,0 mm O-NO 70 6,4 km/h (2 Bft)
01.06.2019 11:50 19,6 C 70 % 1023,7 hPa 0,0 mm O-NO 76 4,8 km/h (1 Bft)
01.06.2019 11:55 19,8 C 71 % 1023,7 hPa 0,0 mm O-NO 63 6,4 km/h (2 Bft)
01.06.2019 12:00 20,2 C 68 % 1023,6 hPa 0,0 mm W 279 4,8 km/h (1 Bft)
01.06.2019 12:05 20,5 C 66 % 1023,6 hPa 0,0 mm NW 317 3,2 km/h (1 Bft)
01.06.2019 12:10 21,4 C 62 % 1023,6 hPa 0,0 mm W 275 8,0 km/h (2 Bft)
01.06.2019 12:15 21,4 C 63 % 1023,5 hPa 0,0 mm W 275 3,2 km/h (1 Bft)
01.06.2019 12:20 20,7 C 67 % 1023,5 hPa 0,0 mm O-SO 107 11,3 km/h (2 Bft)
01.06.2019 12:25 20,4 C 66 % 1023,4 hPa 0,0 mm SO 126 6,4 km/h (2 Bft)
01.06.2019 12:30 20,7 C 72 % 1023,4 hPa 0,0 mm NO 56 6,4 km/h (2 Bft)
01.06.2019 12:35 20,8 C 67 % 1023,3 hPa 0,0 mm S-SO 150 4,8 km/h (1 Bft)
01.06.2019 12:40 20,8 C 64 % 1023,3 hPa 0,0 mm O-SO 111 8,0 km/h (2 Bft)
01.06.2019 12:45 21,2 C 67 % 1023,3 hPa 0,0 mm O-NO 76 6,4 km/h (2 Bft)
01.06.2019 12:50 20,9 C 64 % 1023,1 hPa 0,0 mm O-NO 61 6,4 km/h (2 Bft)
01.06.2019 12:55 20,8 C 67 % 1023,1 hPa 0,0 mm O-SO 111 8,0 km/h (2 Bft)
01.06.2019 13:00 20,5 C 67 % 1023,1 hPa 0,0 mm O 86 4,8 km/h (1 Bft)
01.06.2019 13:05 20,8 C 63 % 1023,1 hPa 0,0 mm N-NW 344 4,8 km/h (1 Bft)
01.06.2019 13:10 20,6 C 63 % 1023,1 hPa 0,0 mm O-SO 106 3,2 km/h (1 Bft)
01.06.2019 13:15 20,6 C 68 % 1023,1 hPa 0,0 mm O-NO 58 11,3 km/h (2 Bft)
01.06.2019 13:20 20,4 C 66 % 1023,0 hPa 0,0 mm O 86 11,3 km/h (2 Bft)
01.06.2019 13:25 20,4 C 68 % 1023,0 hPa 0,0 mm O 98 8,0 km/h (2 Bft)
01.06.2019 13:30 20,5 C 69 % 1023,0 hPa 0,0 mm O 96 8,0 km/h (2 Bft)
01.06.2019 13:35 20,9 C 68 % 1022,9 hPa 0,0 mm O-SO 107 12,9 km/h (3 Bft)
01.06.2019 13:40 20,8 C 63 % 1022,8 hPa 0,0 mm S-SO 152 9,7 km/h (2 Bft)
01.06.2019 13:45 20,9 C 64 % 1022,8 hPa 0,0 mm S-SO 163 3,2 km/h (1 Bft)
01.06.2019 13:50 20,7 C 64 % 1022,8 hPa 0,0 mm S-SO 163 3,2 km/h (1 Bft)
01.06.2019 13:55 20,8 C 66 % 1022,7 hPa 0,0 mm S-SO 163 3,2 km/h (1 Bft)
01.06.2019 14:00 20,7 C 65 % 1022,6 hPa 0,0 mm SO 144 3,2 km/h (1 Bft)
01.06.2019 14:05 20,9 C 65 % 1022,7 hPa 0,0 mm O-NO 61 8,0 km/h (2 Bft)
01.06.2019 14:10 21,0 C 65 % 1022,6 hPa 0,0 mm O-NO 74 4,8 km/h (1 Bft)
01.06.2019 14:15 21,1 C 64 % 1022,5 hPa 0,0 mm O-NO 76 8,0 km/h (2 Bft)
01.06.2019 14:20 21,4 C 61 % 1022,5 hPa 0,0 mm O-NO 70 8,0 km/h (2 Bft)
01.06.2019 14:25 21,6 C 64 % 1022,4 hPa 0,0 mm O-NO 73 4,8 km/h (1 Bft)
01.06.2019 14:30 21,8 C 64 % 1022,3 hPa 0,0 mm O 86 8,0 km/h (2 Bft)
01.06.2019 14:35 21,6 C 61 % 1022,1 hPa 0,0 mm O 84 3,2 km/h (1 Bft)
01.06.2019 14:40 21,5 C 62 % 1022,1 hPa 0,0 mm S-SO 148 4,8 km/h (1 Bft)
01.06.2019 14:45 22,1 C 60 % 1022,0 hPa 0,0 mm SO 138 11,3 km/h (2 Bft)
01.06.2019 14:50 21,8 C 59 % 1022,0 hPa 0,0 mm SO 136 6,4 km/h (2 Bft)
01.06.2019 14:55 22,1 C 58 % 1022,0 hPa 0,0 mm S-SO 158 4,8 km/h (1 Bft)
01.06.2019 15:00 22,1 C 59 % 1021,9 hPa 0,0 mm S-SO 161 8,0 km/h (2 Bft)
01.06.2019 15:05 22,7 C 58 % 1021,8 hPa 0,0 mm W 277 4,8 km/h (1 Bft)
01.06.2019 15:10 23,1 C 57 % 1021,7 hPa 0,0 mm W 260 11,3 km/h (2 Bft)
01.06.2019 15:15 22,7 C 61 % 1021,8 hPa 0,0 mm N-NO 30 8,0 km/h (2 Bft)
01.06.2019 15:20 22,7 C 61 % 1021,6 hPa 0,0 mm N 5 4,8 km/h (1 Bft)
01.06.2019 15:25 22,9 C 57 % 1021,6 hPa 0,0 mm W 265 4,8 km/h (1 Bft)
01.06.2019 15:30 22,6 C 58 % 1021,5 hPa 0,0 mm W 265 3,2 km/h (1 Bft)
01.06.2019 15:35 22,4 C 56 % 1021,5 hPa 0,0 mm O 81 8,0 km/h (2 Bft)
01.06.2019 15:40 22,4 C 59 % 1021,5 hPa 0,0 mm O 84 9,7 km/h (2 Bft)
01.06.2019 15:45 22,0 C 57 % 1021,4 hPa 0,0 mm O 84 3,2 km/h (1 Bft)
01.06.2019 15:50 21,9 C 60 % 1021,4 hPa 0,0 mm O 84 1,6 km/h (1 Bft)
01.06.2019 15:55 21,7 C 59 % 1021,4 hPa 0,0 mm O 84 1,6 km/h (1 Bft)
01.06.2019 16:00 21,9 C 58 % 1021,3 hPa 0,0 mm O 84 0,0 km/h (0 Bft)
01.06.2019 16:05 22,1 C 57 % 1021,3 hPa 0,0 mm N-NW 340 3,2 km/h (1 Bft)
01.06.2019 16:10 22,7 C 59 % 1021,3 hPa 0,0 mm W 265 9,7 km/h (2 Bft)
01.06.2019 16:15 23,2 C 58 % 1021,2 hPa 0,0 mm W 265 8,0 km/h (2 Bft)
01.06.2019 16:20 23,6 C 56 % 1021,2 hPa 0,0 mm W 273 12,9 km/h (3 Bft)
01.06.2019 16:25 23,1 C 57 % 1021,2 hPa 0,0 mm W 269 12,9 km/h (3 Bft)
01.06.2019 16:30 22,6 C 59 % 1021,2 hPa 0,0 mm N-NW 347 4,8 km/h (1 Bft)
01.06.2019 16:35 22,1 C 61 % 1021,1 hPa 0,0 mm N-NO 16 8,0 km/h (2 Bft)
01.06.2019 16:40 21,8 C 62 % 1021,2 hPa 0,0 mm N-NO 15 4,8 km/h (1 Bft)
01.06.2019 16:45 21,7 C 62 % 1021,1 hPa 0,0 mm N 10 6,4 km/h (2 Bft)
01.06.2019 16:50 21,6 C 62 % 1021,2 hPa 0,0 mm N 9 6,4 km/h (2 Bft)
01.06.2019 16:55 21,8 C 61 % 1021,1 hPa 0,0 mm W-SW 243 8,0 km/h (2 Bft)
01.06.2019 17:00 22,0 C 61 % 1021,0 hPa 0,0 mm W-SW 238 6,4 km/h (2 Bft)
01.06.2019 17:05 22,0 C 61 % 1021,0 hPa 0,0 mm N 355 6,4 km/h (2 Bft)
01.06.2019 17:10 22,1 C 61 % 1020,9 hPa 0,0 mm W-NW 286 4,8 km/h (1 Bft)
01.06.2019 17:15 21,9 C 60 % 1020,8 hPa 0,0 mm W 265 4,8 km/h (1 Bft)
01.06.2019 17:20 21,9 C 61 % 1020,7 hPa 0,0 mm W 265 4,8 km/h (1 Bft)
01.06.2019 17:25 21,7 C 62 % 1020,7 hPa 0,0 mm W 265 3,2 km/h (1 Bft)
01.06.2019 17:30 21,5 C 66 % 1020,6 hPa 0,0 mm W 265 1,6 km/h (1 Bft)
01.06.2019 17:35 21,3 C 66 % 1020,6 hPa 0,0 mm W 265 3,2 km/h (1 Bft)
01.06.2019 17:40 21,4 C 66 % 1020,6 hPa 0,0 mm W 265 1,6 km/h (1 Bft)
01.06.2019 17:45 21,4 C 65 % 1020,6 hPa 0,0 mm W 265 1,6 km/h (1 Bft)
01.06.2019 17:50 21,6 C 67 % 1020,5 hPa 0,0 mm O-SO 107 4,8 km/h (1 Bft)
01.06.2019 17:55 21,7 C 67 % 1020,5 hPa 0,0 mm O 101 4,8 km/h (1 Bft)
01.06.2019 18:00 21,8 C 67 % 1020,5 hPa 0,0 mm SO 140 6,4 km/h (2 Bft)
01.06.2019 18:05 21,6 C 63 % 1020,5 hPa 0,0 mm SO 135 6,4 km/h (2 Bft)
01.06.2019 18:10 21,5 C 64 % 1020,5 hPa 0,0 mm SO 143 6,4 km/h (2 Bft)
01.06.2019 18:15 21,7 C 64 % 1020,5 hPa 0,0 mm O-SO 117 4,8 km/h (1 Bft)
01.06.2019 18:20 21,6 C 62 % 1020,4 hPa 0,0 mm O-SO 117 4,8 km/h (1 Bft)
01.06.2019 18:25 21,6 C 60 % 1020,4 hPa 0,0 mm SO 128 4,8 km/h (1 Bft)
01.06.2019 18:30 21,6 C 64 % 1020,4 hPa 0,0 mm SO 128 1,6 km/h (1 Bft)
01.06.2019 18:35 21,4 C 61 % 1020,3 hPa 0,0 mm SO 128 0,0 km/h (0 Bft)
01.06.2019 18:40 21,3 C 61 % 1020,3 hPa 0,0 mm SO 128 0,0 km/h (0 Bft)
01.06.2019 18:45 21,3 C 61 % 1020,3 hPa 0,0 mm SO 128 3,2 km/h (1 Bft)
01.06.2019 18:50 21,4 C 61 % 1020,2 hPa 0,0 mm SO 128 0,0 km/h (0 Bft)
01.06.2019 18:55 21,5 C 65 % 1020,3 hPa 0,0 mm SO 128 1,6 km/h (1 Bft)
01.06.2019 19:00 20,9 C 68 % 1020,3 hPa 0,0 mm O 94 4,8 km/h (1 Bft)
01.06.2019 19:05 20,4 C 71 % 1020,4 hPa 0,0 mm O 94 1,6 km/h (1 Bft)
01.06.2019 19:10 20,1 C 73 % 1020,3 hPa 0,0 mm O 84 4,8 km/h (1 Bft)
01.06.2019 19:15 20,1 C 75 % 1020,3 hPa 0,0 mm O 84 1,6 km/h (1 Bft)
01.06.2019 19:20 19,9 C 76 % 1020,3 hPa 0,0 mm O 84 0,0 km/h (0 Bft)
01.06.2019 19:25 19,9 C 75 % 1020,3 hPa 0,0 mm O 84 0,0 km/h (0 Bft)
01.06.2019 19:30 20,0 C 76 % 1020,3 hPa 0,0 mm O 84 1,6 km/h (1 Bft)
01.06.2019 19:35 20,1 C 76 % 1020,3 hPa 0,0 mm O 84 1,6 km/h (1 Bft)
01.06.2019 19:40 20,0 C 76 % 1020,3 hPa 0,0 mm O 84 0,0 km/h (0 Bft)
01.06.2019 19:45 20,0 C 76 % 1020,3 hPa 0,0 mm O 84 0,0 km/h (0 Bft)
01.06.2019 19:50 19,9 C 75 % 1020,3 hPa 0,0 mm O 84 3,2 km/h (1 Bft)
01.06.2019 19:55 19,8 C 75 % 1020,3 hPa 0,0 mm O 84 1,6 km/h (1 Bft)
01.06.2019 20:00 19,5 C 74 % 1020,3 hPa 0,0 mm NO 42 4,8 km/h (1 Bft)
01.06.2019 20:05 19,3 C 74 % 1020,4 hPa 0,0 mm NO 42 1,6 km/h (1 Bft)
01.06.2019 20:10 19,2 C 75 % 1020,4 hPa 0,0 mm NO 42 0,0 km/h (0 Bft)
01.06.2019 20:15 19,1 C 75 % 1020,4 hPa 0,0 mm NO 42 1,6 km/h (1 Bft)
01.06.2019 20:20 18,9 C 75 % 1020,4 hPa 0,0 mm NO 42 0,0 km/h (0 Bft)
01.06.2019 20:25 18,8 C 75 % 1020,3 hPa 0,0 mm NO 42 0,0 km/h (0 Bft)
01.06.2019 20:30 18,7 C 75 % 1020,3 hPa 0,0 mm NO 42 0,0 km/h (0 Bft)
01.06.2019 20:35 18,6 C 75 % 1020,2 hPa 0,0 mm NO 42 0,0 km/h (0 Bft)
01.06.2019 20:40 18,4 C 76 % 1020,1 hPa 0,0 mm NO 42 1,6 km/h (1 Bft)
01.06.2019 20:45 18,2 C 76 % 1020,1 hPa 0,0 mm NO 42 0,0 km/h (0 Bft)
01.06.2019 20:50 18,0 C 77 % 1020,2 hPa 0,0 mm N 351 3,2 km/h (1 Bft)
01.06.2019 20:55 17,8 C 77 % 1020,3 hPa 0,0 mm N 351 1,6 km/h (1 Bft)
01.06.2019 21:00 17,7 C 77 % 1020,3 hPa 0,0 mm N 351 0,0 km/h (0 Bft)
01.06.2019 21:05 17,6 C 78 % 1020,4 hPa 0,0 mm N 351 0,0 km/h (0 Bft)
01.06.2019 21:10 17,4 C 78 % 1020,5 hPa 0,0 mm N 351 1,6 km/h (1 Bft)
01.06.2019 21:15 17,2 C 78 % 1020,5 hPa 0,0 mm N 351 1,6 km/h (1 Bft)
01.06.2019 21:20 17,0 C 79 % 1020,5 hPa 0,0 mm W-NW 283 3,2 km/h (1 Bft)
01.06.2019 21:25 16,8 C 80 % 1020,5 hPa 0,0 mm W-NW 284 3,2 km/h (1 Bft)
01.06.2019 21:30 16,6 C 80 % 1020,6 hPa 0,0 mm W-NW 284 3,2 km/h (1 Bft)
01.06.2019 21:35 16,4 C 80 % 1020,6 hPa 0,0 mm W-NW 284 3,2 km/h (1 Bft)
01.06.2019 21:40 16,3 C 80 % 1020,7 hPa 0,0 mm W-NW 284 1,6 km/h (1 Bft)
01.06.2019 21:45 16,2 C 81 % 1020,8 hPa 0,0 mm W-NW 284 0,0 km/h (0 Bft)
01.06.2019 21:50 16,1 C 81 % 1020,8 hPa 0,0 mm W-NW 284 0,0 km/h (0 Bft)
01.06.2019 21:55 15,9 C 81 % 1020,7 hPa 0,0 mm W-NW 284 0,0 km/h (0 Bft)
01.06.2019 22:00 15,8 C 81 % 1020,8 hPa 0,0 mm W-NW 283 0,0 km/h (0 Bft)
01.06.2019 22:05 15,6 C 82 % 1020,8 hPa 0,0 mm W-NW 284 0,0 km/h (0 Bft)
01.06.2019 22:10 15,5 C 82 % 1020,8 hPa 0,0 mm W-NW 284 0,0 km/h (0 Bft)
01.06.2019 22:15 15,4 C 82 % 1020,8 hPa 0,0 mm W-NW 283 1,6 km/h (1 Bft)
01.06.2019 22:20 15,2 C 82 % 1020,8 hPa 0,0 mm W-NW 283 3,2 km/h (1 Bft)
01.06.2019 22:25 15,1 C 83 % 1020,7 hPa 0,0 mm W-NW 283 3,2 km/h (1 Bft)
01.06.2019 22:30 15,0 C 83 % 1020,7 hPa 0,0 mm W-NW 283 3,2 km/h (1 Bft)
01.06.2019 22:35 14,9 C 84 % 1020,7 hPa 0,0 mm W-NW 283 4,8 km/h (1 Bft)
01.06.2019 22:40 14,8 C 84 % 1020,8 hPa 0,0 mm W-NW 283 4,8 km/h (1 Bft)
01.06.2019 22:45 14,7 C 84 % 1020,8 hPa 0,0 mm W-NW 283 3,2 km/h (1 Bft)
01.06.2019 22:50 14,6 C 85 % 1020,8 hPa 0,0 mm W-NW 283 4,8 km/h (1 Bft)
01.06.2019 22:55 14,6 C 85 % 1020,8 hPa 0,0 mm W-NW 283 4,8 km/h (1 Bft)
01.06.2019 23:00 14,5 C 85 % 1020,8 hPa 0,0 mm W-NW 283 3,2 km/h (1 Bft)
01.06.2019 23:05 14,4 C 85 % 1020,8 hPa 0,0 mm W-NW 283 0,0 km/h (0 Bft)
01.06.2019 23:10 14,3 C 85 % 1020,9 hPa 0,0 mm W-NW 283 0,0 km/h (0 Bft)
01.06.2019 23:15 14,3 C 85 % 1020,9 hPa 0,0 mm W-NW 283 0,0 km/h (0 Bft)
01.06.2019 23:20 14,1 C 85 % 1020,9 hPa 0,0 mm W-NW 283 0,0 km/h (0 Bft)
01.06.2019 23:25 14,0 C 85 % 1020,9 hPa 0,0 mm W-NW 283 3,2 km/h (1 Bft)
01.06.2019 23:30 13,9 C 85 % 1020,9 hPa 0,0 mm W-NW 283 4,8 km/h (1 Bft)
01.06.2019 23:35 13,8 C 86 % 1020,9 hPa 0,0 mm W-NW 283 1,6 km/h (1 Bft)
01.06.2019 23:40 13,7 C 86 % 1020,9 hPa 0,0 mm W-NW 283 1,6 km/h (1 Bft)
01.06.2019 23:45 13,6 C 86 % 1020,8 hPa 0,0 mm W-NW 283 1,6 km/h (1 Bft)
01.06.2019 23:50 13,6 C 86 % 1020,9 hPa 0,0 mm W-NW 283 1,6 km/h (1 Bft)
01.06.2019 23:55 13,5 C 86 % 1020,9 hPa 0,0 mm W-NW 283 3,2 km/h (1 Bft)
_ Min-Zeit 03:25 15:35 20:40 - - - 00:00
Minimum _ 10,3 C 56 % 1020,1 hPa - - - 0,0 km/h (0 Bft)
_ Max-Zeit 16:20 06:00 00:00 00:00 - - 13:35
Maximum _ 23,6 C 93 % 1026,1 hPa 0,0 mm - - 12,9 km/h
O-SO (3 Bft)
Durchschnitt _ 16,6 C 78 % 1023,0 hPa #0,0 mm W - 3,1 km/h (1 Bft)